South Lake Tahoe, CA

6:57 AM PST on January 20, 2017 (GMT -0800)
Lake Tahoe

Weather History for KTVL - January, 2014

Change the Weather History Date:

Saturday, January 4, 2014

  Actual Average Record
Temperature  
Mean Temperature 36 °F 29 °F  
Max Temperature 50 °F 43 °F 59 °F (1994)
Min Temperature 21 °F 16 °F -16 °F (1972)
Degree Days  
Heating Degree Days 29 36  
Month to date heating degree days 113 144  
Since 1 July heating degree days 3071 3327  
Cooling Degree Days 0 0  
Month to date cooling degree days 0 0  
Year to date cooling degree days 0 0  
Moisture  
Dew Point 13 °F    
Average Humidity 44    
Maximum Humidity 81    
Minimum Humidity 6    
Precipitation  
Precipitation 0.00 in - 2.33 in (2017)
Month to date precipitation 0.00  
Year to date precipitation 0.00  
Sea Level Pressure  
Sea Level Pressure 30.16 in    
Wind  
Wind Speed 3 mph (South)    
Max Wind Speed 15 mph    
Max Gust Speed 23 mph    
Visibility 10 miles    
Events      
T = Trace of Precipitation, MM = Missing Value Source: NWS Daily Summary

Daily Weather History Graph

Daily Weather History Graph

Search for Another Location

Airport or City:

Trip Planner

Search our weather history database for the weather conditions in past years. The results will help you decide how hot, cold, wet, or windy it might be!

Date:

Astronomy

Jan. 04, 2014 Rise Set
Actual Time 7:18 AM PST 4:51 PM PST
Civil Twilight 6:49 AM PST 5:21 PM PST
Nautical Twilight 6:15 AM PST 5:54 PM PST
Astronomical Twilight 5:43 AM PST 6:26 PM PST
Moon 9:29 AM PST (1/4) 9:14 PM PST (1/4)
Length of Visible Light 10h 32m
Length of Day
9h 32m
Waxing Crescent, 16% of the Moon is Illuminated
Jan 4
Waxing Crescent
Jan 7
First Quarter
Jan 15
Full
Jan 23
Last Quarter
Jan 30
New

Hourly Weather History & Observations

Time (PST) Temp. Windchill Dew Point Humidity Pressure Visibility Wind Dir Wind Speed Gust Speed Precip Events Conditions
12:53 AM 27.0 °F 21.6 °F 21.0 °F 78% 30.04 in 10.0 mi SSW 4.6 mph - N/A   Clear
1:53 AM 28.0 °F 21.7 °F 21.0 °F 75% 30.02 in 10.0 mi SSW 5.8 mph - N/A   Clear
2:53 AM 26.1 °F 21.9 °F 19.9 °F 78% 30.03 in 10.0 mi South 3.5 mph - N/A   Clear
3:53 AM 27.0 °F - 19.9 °F 75% 30.05 in 10.0 mi Calm Calm - N/A   Clear
4:53 AM 25.0 °F - 19.0 °F 78% 30.08 in 10.0 mi Calm Calm - N/A   Clear
5:53 AM 25.0 °F - 19.0 °F 78% 30.11 in 10.0 mi Calm Calm - N/A   Clear
6:53 AM 23.0 °F 18.4 °F 18.0 °F 81% 30.15 in 10.0 mi South 3.5 mph - N/A   Clear
7:53 AM 21.0 °F 14.6 °F 16.0 °F 81% 30.17 in 10.0 mi South 4.6 mph - N/A   Clear
8:53 AM 27.0 °F - 19.9 °F 75% 30.19 in 10.0 mi Calm Calm - N/A   Clear
9:53 AM 37.9 °F - 25.0 °F 60% 30.18 in 10.0 mi Calm Calm - N/A   Clear
10:53 AM 45.0 °F 43.5 °F 24.1 °F 44% 30.16 in 10.0 mi Variable 3.5 mph - N/A   Clear
11:53 AM 46.9 °F - 21.0 °F 36% 30.14 in 10.0 mi NNE 6.9 mph - N/A   Clear
12:53 PM 46.9 °F - 14.0 °F 27% 30.15 in 10.0 mi NNE 8.1 mph - N/A   Clear
1:53 PM 48.9 °F - 6.1 °F 18% 30.14 in 10.0 mi Variable 3.5 mph - N/A   Clear
2:53 PM 48.9 °F - -18.0 °F 6% 30.15 in 10.0 mi NE 8.1 mph 23.0 mph N/A   Clear
3:53 PM 46.9 °F - -11.0 °F 9% 30.17 in 10.0 mi ENE 10.4 mph 19.6 mph N/A   Clear
4:53 PM 39.9 °F - -0.9 °F 18% 30.20 in 10.0 mi Calm Calm - N/A   Clear
5:53 PM 37.0 °F 34.5 °F 8.1 °F 30% 30.22 in 10.0 mi WNW 3.5 mph - N/A   Clear
6:53 PM 34.0 °F 31.0 °F 12.9 °F 42% 30.26 in 10.0 mi NW 3.5 mph - N/A   Clear
7:53 PM 32.0 °F - 9.0 °F 38% 30.28 in 10.0 mi North - - N/A   Clear
8:53 PM 28.9 °F - 7.0 °F 40% 30.27 in 10.0 mi Calm Calm - N/A   Clear
9:53 PM 27.0 °F 23.0 °F 9.0 °F 47% 30.26 in 10.0 mi South 3.5 mph - N/A   Clear
10:53 PM 27.0 °F - 10.0 °F 49% 30.26 in 10.0 mi Calm Calm - N/A   Clear
11:53 PM 24.1 °F 19.7 °F 10.0 °F 55% 30.27 in 10.0 mi South 3.5 mph - N/A   Clear